Location: Banksville Park
(38.5557°N, 75.1182°W)
Time: 23:26:57
(UTC+00:00)

Cosmos 540 Rocket - Pass Details

Date: 19 September 2020
Orbit: 741 x 753 km, 74.1° (Epoch: 30 October)

Event Time Altitude Azimuth Distance (km) Brightness Sun altitude
Rises 09:29:14 0° 185° (S) 3,179 6.5 -15.6°
Reaches altitude 10° 09:31:37 10° 182° (S) 2,261 5.8 -15.2°
Maximum altitude 09:36:37 57° 104° (ESE) 885 4.1 -14.2°
Drops below altitude 10° 09:41:40 10° 27° (NNE) 2,282 6.5 -13.3°
Sets 09:44:05 0° 23° (NNE) 3,211 7.3 -12.8°
